Location: Freiburg+im+Breisgau
(48.0359°N, 7.8195°E)
Time: 02:04:08
(UTC+01:00)

Amateur Radio Satellites - All Passes

Search period start: 21 November 2017 01:34
Search period end: 22 November 2017 01:34
Location: Freiburg+im+Breisgau, 48.0359°N, 7.8195°E

Satellite Date Start Highest point End Downlink Frequencies (MHz)
Time Altitude Azimuth
MOZHAYETS 4 21 Nov 01:34:16 01:37:34 20° 61° (ENE) 01:40:52
SPROUT 21 Nov 01:37:13 01:38:17 11° 273° (W) 01:39:22 437.525
QB50P2 21 Nov 01:39:16 01:42:37 23° 296° (WNW) 01:45:57 145.880/145.840
BUGSAT 1 21 Nov 01:48:57 01:53:02 87° 288° (WNW) 01:57:03 437.445
UKube-1 21 Nov 02:01:58 02:06:09 48° 260° (W) 02:10:22 .
nSIGHT-1 21 Nov 02:07:42 02:10:54 65° 18° (NNE) 02:14:05 .
AO-7 21 Nov 02:29:00 02:34:16 18° 87° (E) 02:39:31 .
DUCHIFAT 1 21 Nov 02:31:35 02:32:54 11° 303° (WNW) 02:34:13 145.980
BEESAT 21 Nov 02:42:13 02:46:57 67° 72° (ENE) 02:51:42 436.000
Oscar 19 21 Nov 02:46:16 02:51:19 57° 290° (WNW) 02:56:22 437.125/150
ISS 21 Nov 02:49:45 02:53:01 85° 210° (SSW) 02:56:18 437.550
BEESAT 3 21 Nov 02:50:01 02:53:20 26° 116° (ESE) 02:56:41 437.485
ITUPSAT 1 21 Nov 02:51:27 02:56:15 80° 74° (ENE) 03:01:03 437.325
PCSat 21 Nov 02:59:10 03:03:34 24° 324° (NW) 03:07:59 145.827
ITAMSAT 1 21 Nov 02:59:37 03:02:30 15° 88° (E) 03:05:22 435.822/435.867
M-CUBED/EXP-1 PRIME 21 Nov 03:05:53 03:10:11 42° 104° (ESE) 03:14:35 437.505
Gurwin Techsat 1B 21 Nov 03:06:48 03:11:59 54° 291° (WNW) 03:17:09 435.225
RS-15 21 Nov 03:08:33 03:20:37 69° 45° (NE) 03:31:57 29.354- 29.394
MOZHAYETS 4 21 Nov 03:09:52 03:14:21 55° 260° (W) 03:18:51
CUBESAT XI-V 21 Nov 03:19:49 03:24:13 48° 70° (ENE) 03:28:41 437.345
BUGSAT 1 21 Nov 03:26:45 03:27:42 11° 303° (WNW) 03:28:39 437.445
KKS-1 21 Nov 03:30:33 03:33:38 19° 60° (ENE) 03:36:44 437.445
nSIGHT-1 21 Nov 03:44:09 03:46:59 29° 216° (SW) 03:49:47 .
STARS 21 Nov 03:57:02 03:59:31 15° 58° (ENE) 04:01:59 437.465
BEESAT 2 21 Nov 03:59:35 04:03:19 38° 120° (ESE) 04:07:07 435.950
AO-7 21 Nov 04:20:00 04:28:23 77° 107° (ESE) 04:36:46 .
BEESAT 21 Nov 04:22:11 04:25:12 16° 270° (W) 04:28:13 436.000
BEESAT 3 21 Nov 04:26:54 04:30:42 41° 315° (NW) 04:34:32 437.485
ISS 21 Nov 04:26:54 04:29:08 17° 222° (SW) 04:31:20 437.550
SO-50 21 Nov 04:27:05 04:29:54 16° 24° (NNE) 04:32:45 436.795
Oscar 19 21 Nov 04:28:48 04:29:35 10° 310° (NW) 04:30:21 437.125/150
ITUPSAT 1 21 Nov 04:32:13 04:34:40 14° 272° (W) 04:37:07 437.325
AO-85 21 Nov 04:36:42 04:40:16 35° 119° (ESE) 04:44:00 145.980
ITAMSAT 1 21 Nov 04:37:22 04:42:38 84° 289° (WNW) 04:47:50 435.822/435.867
M-CUBED/EXP-1 PRIME 21 Nov 04:40:35 04:44:22 28° 301° (WNW) 04:48:17 437.505
YUBILEINY 21 Nov 04:41:45 04:48:40 27° 79° (E) 04:55:37 435.215
PCSat 21 Nov 04:47:42 04:49:02 11° 349° (N) 04:50:23 145.827
Gurwin Techsat 1B 21 Nov 04:50:14 04:50:48 10° 311° (NW) 04:51:21 435.225
CUBESAT XI-V 21 Nov 04:58:21 05:01:51 21° 268° (W) 05:05:24 437.345
KKS-1 21 Nov 05:05:20 05:09:46 60° 258° (WSW) 05:14:14 437.445
RS-15 21 Nov 05:21:41 05:32:29 44° 250° (WSW) 05:42:47 29.354- 29.394
DOVE 4 21 Nov 05:27:19 05:32:33 64° 100° (E) 05:37:32 437.250
STARS 21 Nov 05:30:50 05:35:16 78° 257° (WSW) 05:39:44 437.465
BEESAT 2 21 Nov 05:37:31 05:41:07 30° 319° (NW) 05:44:46 435.950
STRAND 1 21 Nov 05:41:12 05:45:03 22° 59° (ENE) 05:48:54 437.568
XW-2D 21 Nov 05:47:01 05:49:51 20° 93° (E) 05:52:40 145.860 - 145.880
XW-2B 21 Nov 06:01:30 06:04:46 26° 95° (E) 06:08:01 145.730 - 145.750
CUTE-I 21 Nov 06:06:20 06:10:58 29° 94° (E) 06:15:33 437.470
SO-50 21 Nov 06:06:49 06:11:21 53° 46° (NE) 06:15:57 436.795
BEESAT 3 21 Nov 06:07:52 06:09:16 12° 337° (NNW) 06:10:42 437.485
AO-7 21 Nov 06:13:27 06:20:29 32° 309° (NW) 06:27:32 .
AO-85 21 Nov 06:17:07 06:20:41 31° 320° (NW) 06:24:27 145.980
NUDT-PHONESAT 21 Nov 06:18:21 06:21:37 28° 96° (E) 06:24:52 437.300
ITAMSAT 1 21 Nov 06:18:25 06:21:19 15° 306° (NW) 06:24:14 435.822/435.867
CUTE 1.7 + AOD 2 21 Nov 06:22:35 06:24:40 13° 88° (E) 06:26:44 437.475
XW-2C 21 Nov 06:26:44 06:30:29 52° 100° (E) 06:34:12 145.795 - 145.815
LilacSat-2 21 Nov 06:28:10 06:31:57 58° 101° (E) 06:35:45 437.200
FO-29 21 Nov 06:31:33 06:36:55 25° 53° (NE) 06:42:40 435.910
PCSat 21 Nov 06:33:00 06:35:05 12° 16° (NNE) 06:37:09 145.827
YUBILEINY 21 Nov 06:35:48 06:44:34 76° 281° (W) 06:53:27 435.215
XW-2F 21 Nov 06:37:49 06:41:36 66° 101° (ESE) 06:45:23 145.980 - 146.000
HO-68 21 Nov 06:43:37 06:49:48 30° 93° (E) 06:55:54 435.675
SEEDS 21 Nov 06:53:18 06:56:07 17° 90° (E) 06:58:56 437.485
DOVE 4 21 Nov 07:05:48 07:09:43 22° 300° (WNW) 07:13:31 437.250
KAITUO 1B 21 Nov 07:06:28 07:10:13 74° 285° (WNW) 07:13:59 145.475/437.950
CUBEBUG 2 21 Nov 07:13:30 07:16:59 25° 94° (E) 07:20:23 437.445
STRAND 1 21 Nov 07:18:40 07:23:47 64° 258° (WSW) 07:28:56 437.568
XW-2D 21 Nov 07:20:37 07:24:08 37° 290° (WNW) 07:27:39 145.860 - 145.880
XW-2B 21 Nov 07:35:39 07:38:53 27° 292° (WNW) 07:42:08 145.730 - 145.750
CUTE-I 21 Nov 07:46:05 07:51:12 46° 293° (WNW) 07:56:18 437.470
XW-2A 21 Nov 07:46:28 07:49:21 26° 96° (E) 07:52:13 145.665 - 145.685
SO-50 21 Nov 07:47:47 07:51:34 25° 245° (WSW) 07:55:23 436.795
NUDT-PHONESAT 21 Nov 07:52:19 07:55:22 24° 293° (WNW) 07:58:24 437.300
CUTE 1.7 + AOD 2 21 Nov 07:56:42 08:00:58 70° 285° (WNW) 08:05:13 437.475
AO-85 21 Nov 08:01:24 08:02:27 11° 344° (NNW) 08:03:30 145.980
XW-2C 21 Nov 08:01:59 08:04:16 16° 298° (WNW) 08:06:34 145.795 - 145.815
ZACube-1 21 Nov 08:02:09 08:05:37 25° 94° (E) 08:09:03 437.345
LilacSat-2 21 Nov 08:03:41 08:05:47 14° 298° (WNW) 08:07:55 437.200
AO-7 21 Nov 08:09:16 08:10:39 10° 334° (NNW) 08:12:02 .
UWE-3 21 Nov 08:10:41 08:14:47 56° 100° (E) 08:18:51 435.000/436.395/437.385
XW-2F 21 Nov 08:13:28 08:15:13 13° 299° (WNW) 08:16:59 145.980 - 146.000
FO-29 21 Nov 08:14:14 08:20:58 87° 252° (WSW) 08:28:34 435.910
PCSat 21 Nov 08:15:30 08:20:18 31° 41° (NE) 08:25:04 145.827
PRISM 21 Nov 08:26:24 08:27:10 10° 56° (NE) 08:27:54 437.425
SEEDS 21 Nov 08:27:58 08:32:06 53° 288° (WNW) 08:36:14 437.485
HO-68 21 Nov 08:30:54 08:38:00 64° 293° (WNW) 08:45:03 435.675
AAUSAT CUBESAT 2 21 Nov 08:35:38 08:39:51 87° 104° (ESE) 08:44:02 437.432
YUBILEINY 21 Nov 08:36:59 08:43:07 20° 306° (NW) 08:49:17 435.215
CUBEBUG 2 21 Nov 08:49:53 08:53:41 34° 292° (WNW) 08:57:25 437.445
AO-73 21 Nov 08:52:57 08:57:06 75° 102° (ESE) 09:01:15 145.935
UNISAT 6 21 Nov 08:53:10 08:57:32 47° 70° (ENE) 09:01:50 437.425
TIGRISAT 21 Nov 08:57:36 09:01:58 48° 71° (ENE) 09:06:16 435.000
Oscar 11 21 Nov 09:09:39 09:14:00 77° 102° (ESE) 09:18:20 .
DELFI C3 21 Nov 09:09:59 09:12:43 17° 91° (E) 09:15:25 145.870
XW-2A 21 Nov 09:19:18 09:21:57 22° 293° (WNW) 09:24:35 145.665 - 145.685
BEESAT 3 21 Nov 09:26:17 09:28:05 13° 25° (NNE) 09:29:52 437.485
ZACube-1 21 Nov 09:38:13 09:41:57 33° 292° (WNW) 09:45:43 437.345
UWE-3 21 Nov 09:48:11 09:50:51 17° 299° (WNW) 09:53:30 435.000/436.395/437.385
PRISM 21 Nov 09:57:33 10:01:40 80° 74° (ENE) 10:05:51 437.425
PCSat 21 Nov 09:58:42 10:04:03 59° 242° (WSW) 10:09:21 145.827
FO-29 21 Nov 10:02:33 10:07:12 19° 277° (W) 10:12:10 435.910
AAUSAT CUBESAT 2 21 Nov 10:13:01 10:14:39 12° 302° (WNW) 10:16:17 437.432
DUCHIFAT 1 21 Nov 10:15:21 10:17:26 13° 59° (ENE) 10:19:30 145.980
EO-88 21 Nov 10:17:10 10:20:41 44° 99° (E) 10:24:12 145.990 - 145.960
Max Valier Satellite 21 Nov 10:18:11 10:21:50 67° 101° (ESE) 10:25:30 145.860
HO-68 21 Nov 10:20:12 10:24:25 17° 315° (NW) 10:28:38 435.675
EO-79 21 Nov 10:21:18 10:24:18 19° 62° (ENE) 10:27:19 145.935-145.965
NANOSAT C BR1 21 Nov 10:24:47 10:27:43 18° 62° (ENE) 10:30:38 145.865
AIST 2D 21 Nov 10:27:32 10:30:52 46° 72° (ENE) 10:34:13 435.315
AO-73 21 Nov 10:30:49 10:32:47 13° 301° (WNW) 10:34:45 145.935
UNISAT 6 21 Nov 10:30:59 10:34:27 21° 268° (W) 10:37:54 437.425
TIGRISAT 21 Nov 10:35:26 10:38:53 21° 268° (W) 10:42:17 435.000
POLYITAN 1 21 Nov 10:35:58 10:39:27 26° 65° (ENE) 10:42:57 437.675
BEESAT 2 21 Nov 10:36:40 10:39:15 16° 30° (NNE) 10:41:49 435.950
LO-87 21 Nov 10:43:44 10:45:20 12° 90° (E) 10:46:55 145.935 - 145.965
DELFI C3 21 Nov 10:43:50 10:47:42 46° 289° (WNW) 10:51:31 145.870
Oscar 11 21 Nov 10:47:18 10:49:34 14° 301° (WNW) 10:51:50 .
QB50P2 21 Nov 10:58:34 11:02:37 46° 70° (ENE) 11:06:41 145.880/145.840
BEESAT 3 21 Nov 11:02:39 11:06:32 49° 47° (NE) 11:10:21 437.485
BUGSAT 1 21 Nov 11:08:51 11:10:47 13° 58° (ENE) 11:12:41 437.445
Gurwin Techsat 1B 21 Nov 11:17:32 11:18:02 10° 49° (NE) 11:18:32 435.225
AO-85 21 Nov 11:23:32 11:27:01 21° 34° (NNE) 11:30:41 145.980
PRISM 21 Nov 11:36:18 11:37:30 11° 272° (W) 11:38:42 437.425
SPROUT 21 Nov 11:41:43 11:43:00 11° 87° (E) 11:44:17 437.525
AO-7 21 Nov 11:45:18 11:48:17 12° 30° (NNE) 11:51:15 .
DUCHIFAT 1 21 Nov 11:48:18 11:52:30 78° 255° (WSW) 11:56:45 145.980
EO-88 21 Nov 11:51:41 11:54:00 16° 297° (WNW) 11:56:19 145.990 - 145.960
Max Valier Satellite 21 Nov 11:53:44 11:55:09 12° 299° (WNW) 11:56:35 145.860
EO-79 21 Nov 11:55:35 11:59:43 51° 260° (W) 12:03:53 145.935-145.965
ESTCUBE 1 21 Nov 11:55:49 12:00:18 59° 101° (E) 12:04:46 437.505/2401.250
NANOSAT C BR1 21 Nov 11:58:55 12:03:03 53° 260° (W) 12:07:12 145.865
AIST 2D 21 Nov 12:02:38 12:04:18 13° 270° (W) 12:05:59 435.315
POLYITAN 1 21 Nov 12:11:10 12:15:05 36° 263° (W) 12:19:01 437.675
BEESAT 2 21 Nov 12:13:36 12:17:40 75° 52° (NE) 12:21:39 435.950
LO-87 21 Nov 12:15:34 12:19:02 51° 288° (WNW) 12:22:28 145.935 - 145.965
VELOX 1 21 Nov 12:17:49 12:20:53 18° 91° (E) 12:23:56 145.980
M-CUBED/EXP-1 PRIME 21 Nov 12:23:47 12:24:50 11° 49° (NE) 12:25:56 437.505
Oscar 19 21 Nov 12:27:40 12:32:31 45° 67° (ENE) 12:37:24 437.125/150
FALCONSAT 3 21 Nov 12:32:04 12:33:27 12° 182° (S) 12:34:49 435.103
QB50P2 21 Nov 12:35:32 12:38:38 20° 268° (W) 12:41:45 145.880/145.840
BEESAT 3 21 Nov 12:40:49 12:43:45 20° 246° (WSW) 12:46:39 437.485
BUGSAT 1 21 Nov 12:41:20 12:45:32 81° 255° (WSW) 12:49:44 437.445
Gurwin Techsat 1B 21 Nov 12:51:41 12:56:51 54° 69° (ENE) 13:02:02 435.225
AO-85 21 Nov 13:03:21 13:07:58 88° 241° (WSW) 13:12:58 145.980
DX 1 21 Nov 13:04:30 13:06:30 13° 88° (E) 13:08:28 434.975-435.025
SPROUT 21 Nov 13:15:11 13:19:28 81° 287° (WNW) 13:23:42 437.525
AO-7 21 Nov 13:31:20 13:38:44 38° 54° (NE) 13:46:09 .
ESTCUBE 1 21 Nov 13:33:32 13:36:41 19° 299° (WNW) 13:39:51 437.505/2401.250
UKube-1 21 Nov 13:45:43 13:49:01 21° 93° (E) 13:52:19 .
O/OREOS (USA 219) 21 Nov 13:50:51 13:55:22 59° 111° (ESE) 13:59:55 437.305
BEESAT 2 21 Nov 13:52:47 13:54:49 14° 250° (WSW) 13:56:51 435.950
VELOX 1 21 Nov 13:53:17 13:57:40 55° 289° (WNW) 14:02:00 145.980
M-CUBED/EXP-1 PRIME 21 Nov 13:54:53 13:58:29 86° 69° (ENE) 14:02:25 437.505
50 SAT 21 Nov 14:04:24 14:07:37 57° 102° (ESE) 14:10:46 437.505
Oscar 19 21 Nov 14:07:42 14:12:01 27° 266° (W) 14:16:22 437.125/150
ITAMSAT 1 21 Nov 14:20:13 14:24:52 34° 64° (ENE) 14:29:33 435.822/435.867
Gurwin Techsat 1B 21 Nov 14:32:49 14:37:06 24° 268° (W) 14:41:24 435.225
DX 1 21 Nov 14:38:48 14:43:13 76° 285° (WNW) 14:47:34 434.975-435.025
BEESAT 21 Nov 14:40:29 14:42:35 13° 88° (E) 14:44:41 436.000
AO-85 21 Nov 14:45:17 14:47:51 14° 249° (WSW) 14:50:30 145.980
YUBILEINY 21 Nov 14:46:01 14:51:34 18° 51° (NE) 14:57:06 435.215
ITUPSAT 1 21 Nov 14:49:35 14:52:23 15° 89° (E) 14:55:11 437.325
SPROUT 21 Nov 14:53:32 14:54:37 11° 304° (NW) 14:55:42 437.525
NO-84 21 Nov 14:59:26 15:02:04 18° 129° (SE) 15:04:50 435.350 FM
DOVE 4 21 Nov 15:00:28 15:03:27 16° 56° (NE) 15:06:32 437.250
MOZHAYETS 4 21 Nov 15:01:24 15:05:15 26° 94° (E) 15:09:04
UKube-1 21 Nov 15:21:07 15:25:15 44° 291° (WNW) 15:29:22 .
AO-7 21 Nov 15:22:57 15:31:08 63° 256° (WSW) 15:39:23 .
O/OREOS (USA 219) 21 Nov 15:31:35 15:35:09 22° 311° (NW) 15:38:44 437.305
50 SAT 21 Nov 15:38:26 15:39:14 11° 299° (WNW) 15:40:03 437.505
CUTE-I 21 Nov 15:55:33 15:57:38 12° 51° (NE) 15:59:44 437.470
ITAMSAT 1 21 Nov 15:59:23 16:04:15 39° 262° (W) 16:09:10 435.822/435.867
BEESAT 21 Nov 16:16:12 16:21:00 85° 286° (WNW) 16:25:45 436.000
DX 1 21 Nov 16:17:28 16:18:36 11° 305° (NW) 16:19:44 434.975-435.025
ITUPSAT 1 21 Nov 16:25:58 16:30:44 72° 287° (WNW) 16:35:28 437.325
XW-2D 21 Nov 16:31:57 16:34:23 17° 63° (ENE) 16:36:49 145.860 - 145.880
NO-84 21 Nov 16:35:06 16:38:54 84° 329° (NNW) 16:43:01 435.350 FM
DOVE 4 21 Nov 16:35:15 16:40:20 87° 71° (ENE) 16:45:39 437.250
MOZHAYETS 4 21 Nov 16:38:16 16:42:31 39° 292° (WNW) 16:46:45
YUBILEINY 21 Nov 16:41:34 16:50:25 67° 76° (ENE) 16:59:11 435.215
XW-2B 21 Nov 16:46:11 16:49:07 22° 66° (ENE) 16:52:03 145.730 - 145.750
CUBESAT XI-V 21 Nov 16:49:32 16:54:14 74° 103° (ESE) 16:58:56 437.345
KKS-1 21 Nov 16:53:16 16:56:34 20° 92° (E) 16:59:51 437.445
NUDT-PHONESAT 21 Nov 17:00:47 17:03:39 22° 66° (ENE) 17:06:33 437.300
XW-2C 21 Nov 17:11:05 17:14:35 40° 71° (ENE) 17:18:08 145.795 - 145.815
LilacSat-2 21 Nov 17:13:05 17:16:42 46° 71° (ENE) 17:20:20 437.200
HO-68 21 Nov 17:16:09 17:22:25 34° 57° (ENE) 17:28:43 435.675
STARS 21 Nov 17:17:50 17:20:19 15° 90° (E) 17:22:48 437.465
CUTE 1.7 + AOD 2 21 Nov 17:18:38 17:21:08 16° 60° (ENE) 17:23:39 437.475
XW-2F 21 Nov 17:21:34 17:25:10 50° 72° (ENE) 17:28:48 145.980 - 146.000
AO-7 21 Nov 17:22:08 17:25:38 13° 277° (W) 17:29:08 .
CUTE-I 21 Nov 17:31:22 17:36:40 64° 71° (ENE) 17:42:01 437.470
RS-15 21 Nov 17:38:05 17:47:37 28° 101° (E) 17:57:05 29.354- 29.394
SEEDS 21 Nov 17:48:20 17:51:17 19° 63° (ENE) 17:54:15 437.485
KAITUO 1B 21 Nov 17:49:10 17:52:50 83° 74° (ENE) 17:56:33 145.475/437.950
BEESAT 21 Nov 17:55:44 17:58:02 14° 305° (NW) 18:00:19 436.000
AAUSAT CUBESAT 2 21 Nov 17:56:41 17:57:54 11° 57° (ENE) 17:59:07 437.432
XW-2D 21 Nov 18:04:38 18:08:14 45° 261° (W) 18:11:51 145.860 - 145.880
ITUPSAT 1 21 Nov 18:06:07 18:07:42 12° 307° (NW) 18:09:17 437.325
NO-84 21 Nov 18:13:01 18:16:42 34° 350° (N) 18:20:32 435.350 FM
CUBEBUG 2 21 Nov 18:14:20 18:18:26 34° 68° (ENE) 18:22:27 437.445
DOVE 4 21 Nov 18:16:01 18:18:44 14° 275° (W) 18:21:31 437.250
AO-73 21 Nov 18:18:38 18:20:01 11° 58° (ENE) 18:21:24 145.935
XW-2B 21 Nov 18:19:45 18:23:08 32° 264° (W) 18:26:32 145.730 - 145.750
XW-2A 21 Nov 18:21:23 18:23:32 16° 65° (ENE) 18:25:41 145.665 - 145.685
CUBESAT XI-V 21 Nov 18:28:08 18:31:04 17° 301° (WNW) 18:33:58 437.345
KKS-1 21 Nov 18:29:05 18:33:24 49° 290° (WNW) 18:37:42 437.445
NUDT-PHONESAT 21 Nov 18:34:06 18:37:21 30° 264° (W) 18:40:39 437.300
Oscar 11 21 Nov 18:34:40 18:36:16 12° 57° (ENE) 18:37:52 .
YUBILEINY 21 Nov 18:39:08 18:46:35 32° 278° (W) 18:54:01 435.215
XW-2C 21 Nov 18:46:27 18:48:58 17° 269° (W) 18:51:29 145.795 - 145.815
LilacSat-2 21 Nov 18:48:56 18:51:13 15° 269° (W) 18:53:32 437.200
CUTE 1.7 + AOD 2 21 Nov 18:52:19 18:56:29 64° 258° (WSW) 19:00:42 437.475
STARS 21 Nov 18:52:44 18:57:07 66° 288° (WNW) 19:01:27 437.465
XW-2F 21 Nov 18:57:33 18:59:35 14° 270° (W) 19:01:37 145.980 - 146.000
ZACube-1 21 Nov 19:01:00 19:04:48 31° 67° (ENE) 19:08:32 437.345
HO-68 21 Nov 19:02:41 19:09:47 61° 258° (WSW) 19:16:56 435.675
UWE-3 21 Nov 19:10:27 19:14:52 70° 73° (ENE) 19:19:10 435.000/436.395/437.385
CUTE-I 21 Nov 19:13:14 19:17:11 21° 269° (W) 19:21:09 437.470
FO-29 21 Nov 19:21:49 19:26:09 16° 81° (E) 19:30:24 435.910
SEEDS 21 Nov 19:22:35 19:26:37 49° 261° (W) 19:30:43 437.485
STRAND 1 21 Nov 19:25:42 19:30:21 33° 96° (E) 19:34:57 437.568
AAUSAT CUBESAT 2 21 Nov 19:28:32 19:32:39 87° 83° (E) 19:36:50 437.432
RS-15 21 Nov 19:46:07 19:58:28 85° 126° (SE) 20:10:44 29.354- 29.394
NO-84 21 Nov 19:51:01 19:54:49 34° 11° (N) 19:58:44 435.350 FM
CUBEBUG 2 21 Nov 19:51:05 19:55:04 29° 265° (W) 19:58:59 437.445
AO-73 21 Nov 19:51:19 19:55:36 88° 82° (E) 19:59:50 145.935
XW-2A 21 Nov 19:52:54 19:55:59 35° 262° (W) 19:59:04 145.665 - 145.685
DELFI C3 21 Nov 19:58:43 20:01:19 17° 62° (ENE) 20:03:57 145.870
Oscar 11 21 Nov 20:07:25 20:11:42 88° 77° (ENE) 20:16:03 .
nSIGHT-1 21 Nov 20:25:09 20:26:21 12° 135° (SE) 20:27:33 .
ZACube-1 21 Nov 20:37:19 20:41:04 29° 265° (W) 20:44:48 437.345
UWE-3 21 Nov 20:49:29 20:51:45 14° 271° (W) 20:54:00 435.000/436.395/437.385
HO-68 21 Nov 20:56:52 20:59:01 11° 278° (W) 21:01:11 435.675
EO-88 21 Nov 20:57:53 21:01:08 32° 69° (ENE) 21:04:24 145.990 - 145.960
Max Valier Satellite 21 Nov 20:59:55 21:03:26 47° 72° (ENE) 21:06:58 145.860
FO-29 21 Nov 21:04:42 21:12:37 69° 102° (ESE) 21:20:05 435.910
STRAND 1 21 Nov 21:04:52 21:09:33 37° 295° (WNW) 21:14:12 437.568
ISS 21 Nov 21:08:24 21:11:02 22° 140° (SE) 21:13:39 437.550
LO-87 21 Nov 21:24:23 21:24:53 10° 60° (ENE) 21:25:23 145.935 - 145.965
ESTCUBE 1 21 Nov 21:25:10 21:26:48 12° 56° (NE) 21:28:27 437.505/2401.250
NO-84 21 Nov 21:28:24 21:32:39 79° 32° (NNE) 21:36:55 435.350 FM
DELFI C3 21 Nov 21:31:49 21:35:41 51° 260° (W) 21:39:36 145.870
AO-73 21 Nov 21:31:58 21:32:26 10° 273° (W) 21:32:53 145.935
Oscar 11 21 Nov 21:47:48 21:48:29 10° 274° (W) 21:49:10 .
nSIGHT-1 21 Nov 21:58:52 22:02:03 62° 152° (SSE) 22:05:14 .
RS-15 21 Nov 22:00:44 22:12:26 45° 333° (NNW) 22:23:52 29.354- 29.394
SO-50 21 Nov 22:04:24 22:08:39 44° 121° (ESE) 22:12:57 436.795
UNISAT 6 21 Nov 22:17:34 22:21:51 63° 101° (E) 22:26:04 437.425
O/OREOS (USA 219) 21 Nov 22:18:24 22:22:25 29° 53° (NE) 22:26:22 437.305
TIGRISAT 21 Nov 22:21:50 22:26:06 64° 101° (ESE) 22:30:18 435.000
EO-88 21 Nov 22:32:07 22:34:51 20° 267° (W) 22:37:36 145.990 - 145.960
Max Valier Satellite 21 Nov 22:35:31 22:37:31 14° 270° (W) 22:39:31 145.860
SPROUT 21 Nov 22:37:45 22:40:14 15° 60° (ENE) 22:42:42 437.525
ISS 21 Nov 22:43:57 22:47:14 80° 339° (NNW) 22:50:30 437.550
FO-29 21 Nov 22:50:16 22:57:03 33° 302° (WNW) 23:03:37 435.910
LO-87 21 Nov 22:54:06 22:57:43 79° 258° (WSW) 23:01:21 145.935 - 145.965
ESTCUBE 1 21 Nov 22:58:23 23:02:51 81° 76° (ENE) 23:07:23 437.505/2401.250
NO-84 21 Nov 23:06:16 23:09:40 23° 229° (SW) 23:13:03 435.350 FM
PRISM 21 Nov 23:10:14 23:14:27 79° 104° (ESE) 23:18:36 437.425
VELOX 1 21 Nov 23:18:02 23:21:40 25° 64° (ENE) 23:25:19 145.980
AIST 2D 21 Nov 23:21:42 23:24:59 35° 97° (E) 23:28:15 435.315
DUCHIFAT 1 21 Nov 23:30:13 23:32:07 13° 89° (E) 23:34:00 145.980
nSIGHT-1 21 Nov 23:35:16 23:38:23 45° 351° (N) 23:41:30 .
EO-79 21 Nov 23:37:08 23:40:12 19° 92° (E) 23:43:15 145.935-145.965
NANOSAT C BR1 21 Nov 23:40:10 23:43:08 19° 92° (E) 23:46:05 145.865
SO-50 21 Nov 23:45:12 23:49:14 32° 321° (NW) 23:53:20 436.795
POLYITAN 1 21 Nov 23:52:10 23:55:47 27° 95° (E) 23:59:21 437.675
UNISAT 6 21 Nov 23:55:27 23:58:05 16° 300° (WNW) 00:00:43 437.425
O/OREOS (USA 219) 21 Nov 23:57:41 00:01:55 39° 253° (WSW) 00:06:06 437.305
TIGRISAT 21 Nov 23:59:43 00:02:19 16° 300° (WNW) 00:04:53 435.000
DX 1 22 Nov 00:02:50 00:05:54 19° 61° (ENE) 00:08:59 434.975-435.025
SPROUT 22 Nov 00:11:19 00:15:36 70° 257° (WSW) 00:19:53 437.525
QB50P2 22 Nov 00:15:12 00:19:20 52° 100° (E) 00:23:25 145.880/145.840
RS-15 22 Nov 00:17:44 00:28:44 36° 7° (N) 00:39:17 29.354- 29.394
ISS 22 Nov 00:20:49 00:23:58 42° 358° (N) 00:27:06 437.550
BUGSAT 1 22 Nov 00:21:49 00:22:51 11° 88° (E) 00:23:54 437.445
50 SAT 22 Nov 00:34:36 00:37:30 30° 69° (ENE) 00:40:24 437.505
Oscar 19 22 Nov 00:37:41 00:39:23 11° 86° (E) 00:41:04 437.125/150
ESTCUBE 1 22 Nov 00:38:26 00:40:15 12° 273° (W) 00:42:04 437.505/2401.250
UKube-1 22 Nov 00:43:09 00:46:51 28° 65° (ENE) 00:50:35 .
PCSat 22 Nov 00:43:19 00:48:39 63° 119° (ESE) 00:54:02 145.827
PRISM 22 Nov 00:47:08 00:49:07 13° 302° (WNW) 00:51:06 437.425
VELOX 1 22 Nov 00:53:44 00:57:55 40° 262° (W) 01:02:09 145.980
AIST 2D 22 Nov 00:55:25 00:57:55 18° 295° (WNW) 01:00:26 435.315
DUCHIFAT 1 22 Nov 01:04:06 01:08:15 69° 287° (WNW) 01:12:23 145.980
Gurwin Techsat 1B 22 Nov 01:05:28 01:08:38 16° 88° (E) 01:11:47 435.225
nSIGHT-1 22 Nov 01:11:50 01:14:58 49° 11° (NNE) 01:18:05 .
EO-79 22 Nov 01:12:10 01:16:11 45° 290° (WNW) 01:20:10 145.935-145.965
NANOSAT C BR1 22 Nov 01:15:04 01:19:05 46° 290° (WNW) 01:23:05 145.865
SO-50 22 Nov 01:29:17 01:31:05 12° 344° (NNW) 01:32:55 436.795
